Regional Weather Roundup
Issued by NWS Kansas City/Pleasant Hill, MO

Home | Current Version | Previous Version | Text Only | Print | Product List | Glossary On
Versions: 1 2 3 4 5 6 7 8 9 10 11 12 13 14 15 16 17 18 19 20 21 22 23 24 25 26 27
000
ASUS43 KEAX 271010
RWREAX

WEATHER ROUNDUP FOR EASTERN KANSAS AND NORTHWEST MISSOURI
NATIONAL WEATHER SERVICE KANSAS CITY/PLEASANT HILL MO
400 AM CST MON FEB 27 2017

KSZ040-057-103>105-MOZ028-029-037-043-271100-
...KANSAS CITY METROPOLITAN AREA...

CITY           SKY/WX    TMP DP  RH WIND       PRES   REMARKS
K.C. INTL      MOCLDY    27  27 100 SE7       30.02S FOG     WCI  19
K.C. DOWNTOWN  FOG       30  29  96 CALM      30.03S VSB 1/2
LEES SUMMIT    FOG       31  31 100 CALM      30.03S VSB 1
OLATHE - IXD   FOG       25  25 100 SE5       30.02S VSB 1/4 WCI  19
OLATHE - OJC   FOG       28  28 100 SE3       30.02R VSB 1/4
LAWRENCE       FOG       24  24 100 E3        30.03R VSB<1/4

$$

MOZ001>008-011>017-020>025-030>033-038>040-044>046-053-054-271100-
...NORTHERN AND CENTRAL MISSOURI...

CITY           SKY/WX    TMP DP  RH WIND       PRES   REMARKS
ST. JOSEPH     FOG       24  24 100 CALM      30.02S VSB<1/4
MOSBY          FOG       28  28 100 CALM      30.04S VSB<1/4
WARRENSBURG    FOG       27  25  93 CALM      30.04S VSB 1/4
WHITEMAN AFB   FOG       29  29 100 SE6       30.03F VSB 0   WCI  23
CLINTON        FOG       25  25 100 CALM      30.04S VSB<1/4
SEDALIA        FOG       28  26  92 E5        30.05S VSB 1/4 WCI  23
WARSAW         NOT AVBL
CHILLICOTHE      N/A     27  26  96 CALM      30.05F
KIRKSVILLE     FOG       23  23 100 CALM      30.05F VSB 1/4

$$

MOZ041-047>049-056>058-063>065-088>090-097-271100-
...EASTERN AND SOUTHERN MISSOURI...

CITY           SKY/WX    TMP DP  RH WIND       PRES   REMARKS
ST. LOUIS INTL MOCLDY    41  34  76 E6        30.08F
SPIRIT OF STL  CLEAR     33  32  96 CALM      30.08S FOG
COLUMBIA       CLEAR     34  33  96 E7        30.05S WCI  28
JEFFERSON CITY CLEAR     31  30  96 CALM      30.07R
ROLLA          CLEAR     32  29  88 SE3       30.03S
OSAGE BEACH    CLEAR     29  27  92 NE5       30.05S FOG     WCI  24
SPRINGFIELD    CLEAR     36  27  69 SE10      30.00S WCI  28
BRANSON        PTCLDY    37  30  75 CALM      30.02F
JOPLIN         CLEAR     35  29  78 E6        29.99S WCI  30
WEST PLAINS    CLEAR     36  26  67 NE3       30.04S

$$

IAZ060-094-KSZ022-034>040-054-083-096-NEZ052-066-093-271100-
...KANSAS...SOUTHEAST NEBRASKA AND IOWA...

CITY           SKY/WX    TMP DP  RH WIND       PRES   REMARKS
TOPEKA         FOG       27  27 100 CALM      30.02S VSB 1/4
MANHATTAN      CLEAR     23  20  88 N3        29.99F
EMPORIA        FOG       24  24 100 E8        29.98S VSB 1   WCI  15
CHANUTE        CLEAR     24  23  96 SE3       29.99S FOG
WICHITA        CLEAR     33  27  78 E5        29.94F WCI  29
OMAHA          CLEAR     26  19  74 E3        29.98F
LINCOLN        CLEAR     20  17  88 CALM      29.98S
FALLS CITY     CLEAR     22  19  89 E3        29.99S
LAMONI         CLEAR     30  28  92 S8        30.00F WCI  22
DES MOINES     CLEAR     28  21  75 CALM      30.01S

$$





USA.gov is the U.S. government's official web portal to all federal, state and local government web resources and services.